When you browse on this site, cookies collect data to enhance your experience and personalize the content and advertising you see.
Visit our Privacy Policy to learn more. By continuing to use the site, you agree to this use of cookies and data.

Hourly Weather Florianópolis

Today, 9 August, Sunday

Time Temperature Precipitation Wind Pressure Humidity
00:00 +16°C° 0 mm 1 mps 768 mmHg 92%
01:00 +16°C° 0 mm 1 mps 768 mmHg 92%
02:00 +16°C° 0 mm 1 mps 768 mmHg 91%
03:00 +16°C° 0 mm 1 mps 768 mmHg 90%
04:00 +15°C° 0 mm 1 mps 767 mmHg 89%
05:00 +15°C° 0 mm 2 mps 767 mmHg 88%
06:00 +15°C° 0 mm 2 mps 767 mmHg 87%
07:00 +16°C° 0 mm 2 mps 767 mmHg 82%
08:00 +17°C° 0 mm 2 mps 767 mmHg 77%
09:00 +19°C° 0 mm 2 mps 768 mmHg 71%
10:00 +21°C° 0 mm 3 mps 767 mmHg 65%
11:00 +24°C° 0 mm 3 mps 767 mmHg 59%
12:00 +25°C° 0 mm 3 mps 767 mmHg 53%
13:00 +26°C° 0 mm 3 mps 766 mmHg 53%
14:00 +26°C° 0 mm 4 mps 765 mmHg 54%
15:00 +26°C° 0 mm 4 mps 764 mmHg 55%
16:00 +23°C° 0 mm 4 mps 764 mmHg 66%
17:00 +21°C° 0 mm 3 mps 764 mmHg 77%
18:00 +19°C° 0 mm 3 mps 764 mmHg 88%
19:00 +19°C° 0 mm 3 mps 764 mmHg 90%
20:00 +18°C° 0 mm 3 mps 764 mmHg 91%
21:00 +18°C° 0 mm 2 mps 764 mmHg 93%
22:00 +18°C° 0 mm 2 mps 764 mmHg 93%
23:00 +17°C° 0 mm 2 mps 764 mmHg 93%

Tomorrow, 10 August, Monday

Time Temperature Precipitation Wind Pressure Humidity
00:00 +17°C° 0 mm 2 mps 763 mmHg 93%
01:00 +17°C° 0 mm 2 mps 763 mmHg 93%
02:00 +17°C° 0 mm 2 mps 763 mmHg 92%
03:00 +17°C° 0 mm 2 mps 762 mmHg 92%
04:00 +17°C° 0 mm 2 mps 762 mmHg 92%
05:00 +17°C° 0 mm 2 mps 762 mmHg 92%
06:00 +17°C° 0 mm 2 mps 762 mmHg 92%
07:00 +18°C° 0 mm 2 mps 762 mmHg 87%
08:00 +19°C° 0 mm 2 mps 762 mmHg 82%
09:00 +21°C° 0 mm 3 mps 763 mmHg 77%
10:00 +24°C° 0 mm 3 mps 762 mmHg 69%
11:00 +25°C° 0 mm 3 mps 762 mmHg 61%
12:00 +27°C° 0 mm 4 mps 761 mmHg 53%
13:00 +28°C° 0 mm 4 mps 760 mmHg 51%
14:00 +28°C° 0 mm 4 mps 760 mmHg 50%
15:00 +29°C° 0 mm 4 mps 759 mmHg 48%
16:00 +26°C° 0 mm 4 mps 758 mmHg 60%
17:00 +24°C° 0 mm 3 mps 758 mmHg 71%
18:00 +21°C° 0 mm 3 mps 758 mmHg 82%
19:00 +21°C° 0 mm 3 mps 758 mmHg 82%
20:00 +20°C° 0 mm 3 mps 759 mmHg 83%
21:00 +20°C° 0 mm 2 mps 759 mmHg 83%
22:00 +20°C° 0 mm 2 mps 759 mmHg 83%
23:00 +20°C° 0 mm 2 mps 759 mmHg 82%

Day after tomorrow, 11 August, Tuesday

Time Temperature Precipitation Wind Pressure Humidity
00:00 +19°C° 0 mm 2 mps 759 mmHg 81%
01:00 +19°C° 0 mm 2 mps 759 mmHg 80%
02:00 +19°C° 0 mm 2 mps 759 mmHg 79%
03:00 +19°C° 0 mm 2 mps 759 mmHg 79%
04:00 +19°C° 0 mm 2 mps 759 mmHg 78%
05:00 +19°C° 0 mm 2 mps 759 mmHg 76%
06:00 +19°C° 0 mm 3 mps 759 mmHg 75%
07:00 +21°C° 0 mm 3 mps 759 mmHg 70%
08:00 +22°C° 0 mm 3 mps 760 mmHg 65%
09:00 +25°C° 0 mm 3 mps 760 mmHg 60%
10:00 +25°C° 0 mm 4 mps 760 mmHg 61%
11:00 +23°C° 0 mm 5 mps 760 mmHg 62%
12:00 +23°C° 0 mm 6 mps 760 mmHg 63%
13:00 +23°C° 0 mm 6 mps 760 mmHg 64%
14:00 +22°C° 0 mm 6 mps 760 mmHg 66%
15:00 +21°C° 0 mm 6 mps 760 mmHg 67%
16:00 +20°C° 0 mm 6 mps 761 mmHg 72%
17:00 +19°C° 0 mm 6 mps 761 mmHg 78%
18:00 +16°C° 0 mm 6 mps 761 mmHg 83%
19:00 +16°C° 0 mm 5 mps 762 mmHg 84%
20:00 +16°C° 0 mm 5 mps 763 mmHg 84%
21:00 +16°C° 0 mm 5 mps 763 mmHg 84%
22:00 +15°C° 0 mm 4 mps 763 mmHg 83%
23:00 +15°C° 0 mm 4 mps 763 mmHg 83%

12 August, Wednesday

Time Temperature Precipitation Wind Pressure Humidity
00:00 +16°C° 0 mm 3 mps 763 mmHg 82%
01:00 +16°C° 0 mm 3 mps 763 mmHg 82%
02:00 +16°C° 0 mm 3 mps 763 mmHg 82%
03:00 +16°C° 0 mm 2 mps 762 mmHg 81%
04:00 +16°C° 0 mm 2 mps 762 mmHg 82%
05:00 +16°C° 0 mm 3 mps 762 mmHg 82%
06:00 +16°C° 0 mm 3 mps 761 mmHg 83%
07:00 +16°C° 0 mm 2 mps 762 mmHg 83%
08:00 +16°C° 0 mm 2 mps 762 mmHg 84%
09:00 +16°C° 0 mm 1 mps 762 mmHg 84%
10:00 +18°C° 0.1 mm 1 mps 762 mmHg 85%
11:00 +18°C° 0.1 mm 1 mps 761 mmHg 85%
12:00 +19°C° 0.1 mm 1 mps 761 mmHg 85%
13:00 +19°C° 0 mm 1 mps 760 mmHg 84%
14:00 +20°C° 0 mm 1 mps 760 mmHg 84%
15:00 +18°C° 0 mm 0 mps 759 mmHg 83%
16:00 +20°C° 0 mm 1 mps 759 mmHg 84%
17:00 +20°C° 0 mm 1 mps 758 mmHg 86%
18:00 +20°C° 0 mm 1 mps 758 mmHg 87%
19:00 +20°C° 0.4 mm 1 mps 758 mmHg 89%
20:00 +19°C° 0.4 mm 1 mps 758 mmHg 92%
21:00 +18°C° 0.4 mm 2 mps 758 mmHg 94%
22:00 +19°C° 0.1 mm 1 mps 758 mmHg 94%
23:00 +19°C° 0.1 mm 1 mps 758 mmHg 95%

13 August, Thursday

Time Temperature Precipitation Wind Pressure Humidity
00:00 +19°C° 0.1 mm 1 mps 758 mmHg 95%
01:00 +19°C° 0 mm 1 mps 757 mmHg 95%
02:00 +18°C° 0 mm 2 mps 757 mmHg 94%
03:00 +19°C° 0 mm 2 mps 757 mmHg 94%
04:00 +18°C° 0.2 mm 2 mps 756 mmHg 94%
05:00 +18°C° 0.2 mm 2 mps 756 mmHg 94%
06:00 +18°C° 0.2 mm 2 mps 756 mmHg 94%
07:00 +19°C° 0.1 mm 2 mps 756 mmHg 92%
08:00 +20°C° 0.1 mm 2 mps 756 mmHg 90%
09:00 +21°C° 0.1 mm 2 mps 757 mmHg 88%
10:00 +24°C° 0.1 mm 2 mps 757 mmHg 79%
11:00 +26°C° 0.1 mm 2 mps 756 mmHg 71%
12:00 +28°C° 0.1 mm 3 mps 756 mmHg 62%
13:00 +27°C° 0.1 mm 3 mps 756 mmHg 66%
14:00 +26°C° 0.1 mm 3 mps 755 mmHg 69%
15:00 +25°C° 0.1 mm 3 mps 755 mmHg 73%
16:00 +24°C° 0.6 mm 3 mps 755 mmHg 80%
17:00 +21°C° 0.6 mm 3 mps 755 mmHg 87%
18:00 +19°C° 0.6 mm 3 mps 755 mmHg 94%
19:00 +19°C° 5.3 mm 3 mps 756 mmHg 95%
20:00 +19°C° 5.3 mm 2 mps 756 mmHg 96%
21:00 +19°C° 5.3 mm 2 mps 757 mmHg 97%
22:00 +19°C° 2.4 mm 2 mps 757 mmHg 97%
23:00 +19°C° 2.4 mm 2 mps 757 mmHg 97%

14 August, Friday

Time Temperature Precipitation Wind Pressure Humidity
00:00 +19°C° 2.4 mm 2 mps 757 mmHg 97%
01:00 +19°C° 0.5 mm 2 mps 757 mmHg 97%
02:00 +20°C° 0.5 mm 1 mps 757 mmHg 97%
03:00 +20°C° 0.5 mm 1 mps 756 mmHg 97%
04:00 +20°C° 1.1 mm 1 mps 757 mmHg 96%
05:00 +20°C° 1.1 mm 1 mps 757 mmHg 96%
06:00 +20°C° 1.1 mm 1 mps 757 mmHg 96%
07:00 +18°C° 0.3 mm 0 mps 758 mmHg 95%
08:00 +19°C° 0.3 mm 0 mps 758 mmHg 94%
09:00 +19°C° 0.3 mm 0 mps 759 mmHg 93%
10:00 +22°C° 0.1 mm 1 mps 758 mmHg 91%
11:00 +23°C° 0.1 mm 1 mps 758 mmHg 88%
12:00 +23°C° 0.1 mm 2 mps 758 mmHg 85%
13:00 +24°C° 0.1 mm 2 mps 757 mmHg 83%
14:00 +24°C° 0.1 mm 3 mps 757 mmHg 81%
15:00 +24°C° 0.1 mm 3 mps 756 mmHg 79%
16:00 +24°C° 0.1 mm 3 mps 756 mmHg 83%
17:00 +23°C° 0.1 mm 2 mps 756 mmHg 87%
18:00 +21°C° 0.1 mm 2 mps 756 mmHg 91%
19:00 +21°C° 1.3 mm 2 mps 757 mmHg 92%
20:00 +21°C° 1.3 mm 2 mps 757 mmHg 93%
21:00 +21°C° 1.3 mm 3 mps 758 mmHg 95%
22:00 +21°C° 0.2 mm 2 mps 757 mmHg 95%
23:00 +21°C° 0.2 mm 1 mps 757 mmHg 96%
Show more